Weather History for KFST - December, 2012

Change the Weather History Date:

Monday, December 31, 2012

  Actual Average Record
Temperature  
Mean Temperature 46 °F -  
Max Temperature 59 °F 58 °F 82 °F (2011)
Min Temperature 34 °F 34 °F 19 °F (2014)
Degree Days  
Heating Degree Days 18    
Moisture  
Dew Point 32 °F    
Average Humidity 61    
Maximum Humidity 89    
Minimum Humidity 33    
Precipitation  
Precipitation 0.00 in - - ()
Sea Level Pressure  
Sea Level Pressure 29.94 in    
Wind  
Wind Speed 10 mph (West)    
Max Wind Speed 18 mph    
Max Gust Speed -    
Visibility 10 miles    
Events      
Averages and records for this station are not official NWS values.
T = Trace of Precipitation, MM = Missing Value Source: NWS Daily Summary

Daily Weather History Graph

Daily Weather History Graph

Search for Another Location

Airport or City:

Trip Planner

Search our weather history database for the weather conditions in past years. The results will help you decide how hot, cold, wet, or windy it might be!

Date:

Astronomy

Dec. 31, 2012 Rise Set
Actual Time 7:49 AM CST 6:00 PM CST
Civil Twilight 7:22 AM CST 6:27 PM CST
Nautical Twilight 6:52 AM CST 6:57 PM CST
Astronomical Twilight 6:23 AM CST 7:26 PM CST
Moon 9:18 PM CST (12/31) 9:45 AM CST (12/31)
Length of Visible Light 11h 04m
Length of Day
10h 11m
Waning Gibbous, 90% of the Moon is Illuminated
Dec 31
Waning Gibbous
Jan 4
Last Quarter
Jan 11
New
Jan 18
First Quarter
Jan 26
Full

Hourly Weather History & Observations

Time (CST) Temp. Windchill Dew Point Humidity Pressure Visibility Wind Dir Wind Speed Gust Speed Precip Events Conditions
12:53 AM 41.0 °F 32.2 °F 30.0 °F 65% 29.93 in 10.0 mi SSE 18.4 mph - N/A   Partly Cloudy
1:53 AM 41.0 °F 32.8 °F 30.0 °F 65% 29.87 in 10.0 mi SSE 16.1 mph - N/A   Clear
2:53 AM 42.1 °F 35.7 °F 30.9 °F 65% 29.86 in 10.0 mi SSE 11.5 mph - N/A   Clear
3:53 AM 43.0 °F 39.5 °F 32.0 °F 65% 29.86 in 10.0 mi ESE 5.8 mph - N/A   Clear
4:53 AM 39.9 °F 35.1 °F 32.0 °F 73% 29.87 in 10.0 mi WNW 6.9 mph - N/A   Clear
5:53 AM 35.1 °F 26.9 °F 30.9 °F 85% 29.91 in 10.0 mi NW 11.5 mph - N/A   Clear
6:53 AM 34.0 °F 28.0 °F 30.0 °F 85% 29.94 in 10.0 mi West 6.9 mph - N/A   Clear
8:53 AM 34.0 °F 28.8 °F 30.9 °F 89% 30.00 in 10.0 mi South 5.8 mph - N/A   Clear
9:53 AM 37.0 °F 31.6 °F 32.0 °F 82% 30.00 in 10.0 mi South 6.9 mph - N/A   Clear
10:53 AM 44.1 °F - 35.1 °F 71% 30.00 in 10.0 mi Calm Calm - N/A   Clear
11:53 AM 52.0 °F - 36.0 °F 54% 29.98 in 10.0 mi WNW 4.6 mph - N/A   Clear
12:53 PM 55.0 °F - 36.0 °F 49% 29.93 in 10.0 mi NW 10.4 mph - N/A   Clear
1:53 PM 57.9 °F - 33.1 °F 39% 29.89 in 10.0 mi WNW 5.8 mph - N/A   Clear
2:53 PM 59.0 °F - 30.0 °F 33% 29.87 in 10.0 mi NW 6.9 mph - N/A   Clear
3:53 PM 57.0 °F - 34.0 °F 42% 29.89 in 10.0 mi NE 11.5 mph - N/A   Clear
4:53 PM 54.0 °F - 35.1 °F 49% 29.91 in 10.0 mi ESE 6.9 mph - N/A   Clear
5:53 PM 51.1 °F - 35.1 °F 54% 29.94 in 10.0 mi ESE 4.6 mph - N/A   Clear
6:53 PM 46.9 °F - 34.0 °F 61% 29.97 in 10.0 mi East 3.5 mph - N/A   Clear
7:53 PM 46.9 °F - 33.1 °F 59% 29.99 in 10.0 mi North 4.6 mph - N/A   Clear
8:53 PM 45.0 °F 43.5 °F 28.9 °F 53% 30.01 in 10.0 mi NNW 3.5 mph - N/A   Clear
10:53 PM 39.9 °F 35.1 °F 26.1 °F 58% 30.04 in 10.0 mi West 6.9 mph - N/A   Clear
11:53 PM 43.0 °F 38.2 °F 26.1 °F 51% 30.03 in 10.0 mi WNW 8.1 mph - N/A   Overcast